Weather History for KPMD - February, 2014

Change the Weather History Date:

Wednesday, February 19, 2014

  Actual Average Record
Temperature  
Mean Temperature 55 °F 49 °F  
Max Temperature 68 °F 62 °F 80 °F (1981)
Min Temperature 41 °F 36 °F 21 °F (1955)
Degree Days  
Heating Degree Days 10 16  
Month to date heating degree days 216 328  
Since 1 July heating degree days 1807 2112  
Cooling Degree Days 0 0  
Month to date cooling degree days 1 0  
Year to date cooling degree days 1 0  
Growing Degree Days 4 (Base 50)    
Moisture  
Dew Point 27 °F    
Average Humidity 37    
Maximum Humidity 59    
Minimum Humidity 15    
Precipitation  
Precipitation 0.00 in 0.07 in 1.60 in (1993)
Month to date precipitation T 1.19  
Year to date precipitation T 2.76  
Since 1 July precipitation 2.07  
Snow  
Snow 0.00 in - T in (1962)
Month to date snowfall 0.0  
Since 1 July snowfall 0.0  
Snow Depth 0.00 in    
Sea Level Pressure  
Sea Level Pressure 29.96 in    
Wind  
Wind Speed 16 mph (West)    
Max Wind Speed 37 mph    
Max Gust Speed 41 mph    
Visibility 10 miles    
Events      
T = Trace of Precipitation, MM = Missing Value Source: NWS Daily Summary

Daily Weather History Graph

Daily Weather History Graph

Search for Another Location

Airport or City:

Trip Planner

Search our weather history database for the weather conditions in past years. The results will help you decide how hot, cold, wet, or windy it might be!

Date:

Astronomy

Feb. 19, 2014 Rise Set
Actual Time 6:33 AM PST 5:39 PM PST
Civil Twilight 6:07 AM PST 6:05 PM PST
Nautical Twilight 5:38 AM PST 6:34 PM PST
Astronomical Twilight 5:09 AM PST 7:03 PM PST
Moon 10:23 PM PST (2/19) 8:54 AM PST (2/19)
Length of Visible Light 11h 57m
Length of Day
11h 06m
Waning Gibbous, 79% of the Moon is Illuminated
Feb 19
Waning Gibbous
Feb 22
Last Quarter
Mar 1
New
Mar 8
First Quarter
Mar 16
Full

Hourly Weather History & Observations

Time (PST) Temp. Windchill Dew Point Humidity Pressure Visibility Wind Dir Wind Speed Gust Speed Precip Events Conditions
12:53 AM 48.9 °F - 21.9 °F 35% 29.95 in 10.0 mi South 3.5 mph - N/A   Clear
1:53 AM 46.9 °F - 23.0 °F 39% 29.94 in 10.0 mi NNE 3.5 mph - N/A   Clear
2:53 AM 46.0 °F 43.9 °F 19.9 °F 35% 29.92 in 10.0 mi SSW 4.6 mph - N/A   Clear
3:53 AM 53.1 °F - 19.9 °F 27% 29.90 in 10.0 mi SW 5.8 mph - N/A   Clear
4:53 AM 48.0 °F - 21.9 °F 36% 29.93 in 10.0 mi Calm Calm - N/A   Clear
5:53 AM 43.0 °F - 21.9 °F 43% 29.98 in 10.0 mi Calm Calm - N/A   Clear
6:53 AM 52.0 °F - 28.9 °F 41% 29.98 in 10.0 mi West 13.8 mph - N/A   Clear
7:53 AM 54.0 °F - 30.9 °F 41% 29.98 in 10.0 mi West 15.0 mph - N/A   Clear
8:53 AM 57.9 °F - 33.1 °F 39% 29.99 in 10.0 mi WNW 27.6 mph - N/A   Clear
9:53 AM 61.0 °F - 32.0 °F 34% 30.01 in 10.0 mi WNW 27.6 mph - N/A   Clear
10:53 AM 62.1 °F - 32.0 °F 32% 30.01 in 10.0 mi North - - N/A   Clear
11:53 AM 63.0 °F - 30.9 °F 30% 29.99 in 10.0 mi North - - N/A   Clear
12:53 PM 64.9 °F - 28.9 °F 26% 29.95 in 10.0 mi WNW 27.6 mph - N/A   Clear
1:53 PM 66.9 °F - 26.1 °F 21% 29.92 in 10.0 mi NW 23.0 mph 33.4 mph N/A   Clear
2:53 PM 66.9 °F - 21.0 °F 17% 29.91 in 10.0 mi WNW 19.6 mph 25.3 mph N/A   Clear
3:53 PM 66.0 °F - 18.0 °F 16% 29.88 in 10.0 mi WNW 29.9 mph 38.0 mph N/A   Clear
4:53 PM 63.0 °F - 19.0 °F 18% 29.90 in 10.0 mi West 27.6 mph 36.8 mph N/A   Clear
5:53 PM 59.0 °F - 24.1 °F 26% 29.95 in 10.0 mi West 21.9 mph 28.8 mph N/A   Clear
6:53 PM 55.9 °F - 25.0 °F 30% 29.94 in 10.0 mi West 16.1 mph - N/A   Clear
7:53 PM 57.0 °F - 26.1 °F 30% 29.96 in 10.0 mi WNW 16.1 mph - N/A   Clear
8:53 PM 55.9 °F - 28.0 °F 34% 29.98 in 10.0 mi Variable 5.8 mph - N/A   Clear
9:53 PM 54.0 °F - 34.0 °F 47% 30.00 in 10.0 mi WNW 19.6 mph - N/A   Clear
10:53 PM 52.0 °F - 37.9 °F 59% 30.03 in 9.0 mi WNW 20.7 mph - N/A   Clear
11:53 PM 51.1 °F - 39.0 °F 63% 30.03 in 10.0 mi WNW 12.7 mph - N/A   Clear